GRUS-1B (47934 NORAD) Tracking and Keplerian Element Data

This shows tracking and keplerian element data for the satellite.

Feedback or suggestion? Click here.




ElementValue
Catalog47934
NameGRUS-1B
Epoch Orbit1364
Epoch Day172.78352228
Epoch Year2021
RAAN75.1421
Inclination97.7245
Eccentricity0.0018569
Argument of Perigee297.3401
Mean Anonmoly62.5928
Mean Motion14.93051177
Decay Rate-8.7E-07
L11 47934U 21022C 21172.78352228 -.00000087 00000-0 -28559-5 0 9995
L22 47934 97.7245 75.1421 0018569 297.3401 62.5928 14.93051177 13642

Live tracking and technical data element details for GRUS-1B (NORAD 47934). GRUS-1B can be tracked NOW for your location showing map with azimuth and elevation plus other details from your city location.

Track the satellite on the map from your city or location and see movement details for azimuth, elevation, latitude, longitude, range, height, and movement on the map or in text.







IsCatalogInMostPopularTable: catalog: 47934, numindb: 43
Update: records affected: 1



GetName: 47934 GRUS-1B

Hit Count: updated at: Thu, 24 Jun 2021 03:29:11 GMT